Aérodrome :
LOGIN :

S'inscrire | Disclaimer

   EN    FR    IT 

 










Légende :    VFR   VFR Marginal   IFR   IFR Intensif   IFR Très Intensif
Visi : 
Plafond : 
>= 8 km
>= 3000ft
5 à 8 km
1000 à 3000 ft
1500m à 5 km
500 à 1000 ft
800 à 1500m
200 à 500 ft
< 800m
< 200 ft
Symboles :   Orages  Brouillard  Fortes neiges  Fortes précipitations  Vent > 20 kt
SIGMETs :   Divers  Orages  Givrage  Turbulence  Onde Orograph.  Cendres Volcan.







- Altitude de l'aérodrome : 26 ft
- Code IATA : BIA
- Voir les cartes d'approche


LFKB - Bastia

DERNIER METAR :
  • 240930Z 12006KT 080V170 CAVOK 23/17 Q1019 NOSIG

METARs EXPIRÉS :
  • 240900Z 10005KT 060V150 CAVOK 23/16 Q1019 NOSIG
  • 240830Z 11005KT 070V160 CAVOK 22/16 Q1019 NOSIG
  • 240800Z 12003KT 070V190 CAVOK 23/15 Q1019 NOSIG
  • 240730Z VRB03KT CAVOK 22/14 Q1019 NOSIG
  • 240700Z VRB02KT CAVOK 21/14 Q1019 NOSIG

TAF TAF LFKB
Valide du 24 à 09h jusqu'au 25 à 09h UTC


240800Z 2409/2509 VRB03KT CAVOK
BECMG 2409/2410 08010KT
BECMG 2418/2420 24003KT
BECMG 2508/2509 10006KT
PROB40
TEMPO 2500/2506 BKN012 TX24/2412Z TN15/2500Z
ATIS : +33 4 95 59 19 40
Pas de NOTAMs connus pour ce terrain.



MET'MAP, la Météo Aéronautique d'un coup d'oeil ! - Copyright ORBIFLY Décembre 2007 - Disclaimer

ORBIFLY MET'MAP TEAM :

Programmation & Développement : Alexandra Zaïnal
Conception & Développement : Baudouin d'Aumeries
Co-Programmation & Développement : Marc-Olivier Méhu
Soutien technique & logistique : Manuel Goepfert

Contact : metmap@orbifly.com




SOURCES & CREDITS :

   NOAA